Regional Weather Roundup
Issued by NWS Little Rock, AR

Home | Current Version | Previous Version | Graphics & Text | Print | Product List | Glossary On
Versions: 1 2 3 4 5 6 7 8 9 10 11 12 13 14 15 16 17 18 19 20 21 22 23 24 25 26 27 28 29 30 31 32 33 34
000
ASUS44 KLZK 030605
RWRLZK

WEATHER ROUNDUP FOR ARKANSAS
NATIONAL WEATHER SERVICE LITTLE ROCK AR
1200 AM CST SAT DEC 03 2016

NOTE: "FAIR" INDICATES FEW OR NO CLOUDS BELOW 12,000 FEET WITH NO
SIGNIFICANT WEATHER AND/OR OBSTRUCTIONS TO VISIBILITY.

ARZ001-003-010-029-030700-
NORTHWEST ARKANSAS

CITY           SKY/WX    TMP DP  RH WIND       PRES   REMARKS
FAYETTEVILLE   CLOUDY    44  36  73 CALM      30.27R
6HR MIN TEMP:  42; 6HR MAX TEMP:  54;

FORT SMITH     CLOUDY    50  36  58 E5        30.26R
6HR MIN TEMP:  48; 6HR MAX TEMP:  55;

HARRISON       CLOUDY    45  32  60 SE3       30.29R
6HR MIN TEMP:  45; 6HR MAX TEMP:  50;

BENTONVILLE    CLOUDY    48  28  46 E5        30.27S
6HR MIN TEMP:  48; 6HR MAX TEMP:  55;

ROGERS         CLOUDY    49  31  49 E8        30.28R
6HR MIN TEMP:  49; 6HR MAX TEMP:  54;

SILOAM SPGS    CLOUDY    48  30  49 CALM      30.26S
6HR MIN TEMP:  48; 6HR MAX TEMP:  55;

HIGHFILL       CLOUDY    49  32  52 E6        30.27R
6HR MIN TEMP:  49; 6HR MAX TEMP:  55;

$$

ARZ004-005-016-030700-
NORTH CENTRAL ARKANSAS

CITY           SKY/WX    TMP DP  RH WIND       PRES   REMARKS
BATESVILLE     CLOUDY    45  36  70 CALM      30.31S
6HR MIN TEMP:  43; 6HR MAX TEMP:  50;

FLIPPIN        CLOUDY    46  30  53 NE5       30.28R
6HR MIN TEMP:  45; 6HR MAX TEMP:  52;

MTN HOME       CLOUDY    43  33  68 E3        30.31R
6HR MIN TEMP:  43; 6HR MAX TEMP:  50;

$$

ARZ040-041-030700-
WEST CENTRAL ARKANSAS

CITY           SKY/WX    TMP DP  RH WIND       PRES   REMARKS
MENA           CLOUDY    50  41  71 CALM      30.24S
MOUNT IDA      CLOUDY    47  40  76 CALM      30.22F
6HR MIN TEMP:  46; 6HR MAX TEMP:  52;

$$

ARZ009-017-025-026-028-030700-
NORTHEAST ARKANSAS

CITY           SKY/WX    TMP DP  RH WIND       PRES   REMARKS
CORNING        FAIR      41  37  87 NE6       30.34R
JONESBORO      MOCLDY    45  36  70 NE7       30.31S
6HR MIN TEMP:  45; 6HR MAX TEMP:  48;

NEWPORT        LGT RAIN  44  41  89 NE8       30.30F FOG
6HR MIN TEMP:  44; 6HR MAX TEMP:  49;

WALNUT RIDGE   CLOUDY    43  34  70 N5        30.32R
6HR MIN TEMP:  43; 6HR MAX TEMP:  46;

BLYTHEVILLE    CLOUDY    45  36  70 NE5       30.32F
6HR MIN TEMP:  43; 6HR MAX TEMP:  47;

$$

ARZ022-023-033-042-044-030700-
CENTRAL ARKANSAS

CITY           SKY/WX    TMP DP  RH WIND       PRES   REMARKS
LITTLE ROCK    CLOUDY    47  39  74 N3        30.29R
6HR MIN TEMP:  44; 6HR MAX TEMP:  51;

N LITTLE ROCK    N/A     49  37  62 E3        30.30R
6HR MIN TEMP:  48; 6HR MAX TEMP:  54;

JACKSONVILLE   CLOUDY    47  39  75 NE2       30.28R
6HR MIN TEMP:  44; 6HR MAX TEMP:  49;

SEARCY         CLOUDY    48  40  73 NE8       30.30F
6HR MIN TEMP:  48; 6HR MAX TEMP:  53;

HOT SPRINGS    PTCLDY    52  35  52 E6        30.25F
6HR MIN TEMP:  50; 6HR MAX TEMP:  54;

RUSSELLVILLE   CLOUDY    51  34  52 E5        30.27S
6HR MIN TEMP:  44; 6HR MAX TEMP:  52;

$$

ARZ036-030700-
EAST ARKANSAS

CITY           SKY/WX    TMP DP  RH WIND       PRES   REMARKS
WEST MEMPHIS   CLOUDY    48  35  60 E5        30.30R
6HR MIN TEMP:  46; 6HR MAX TEMP:  51;

$$

ARZ050-053-066-070-073-030700-
SOUTHWEST ARKANSAS

CITY           SKY/WX    TMP DP  RH WIND       PRES   REMARKS
ARKADELPHIA    MOCLDY    50  40  68 NE5       30.25S
6HR MIN TEMP:  47; 6HR MAX TEMP:  50;

CAMDEN         CLOUDY    50  34  53 CALM      30.24S
TEXARKANA      LGT RAIN  52  38  58 E5        30.19F
6HR MIN TEMP:  52; 6HR MAX TEMP:  56; 6HR PCP: TRACE;

EL DORADO      MOCLDY    52  37  56 NE5       30.23S
6HR MIN TEMP:  50; 6HR MAX TEMP:  53;

DE QUEEN       CLOUDY    53  38  56 E7        30.20F
6HR MIN TEMP:  50; 6HR MAX TEMP:  54;

$$

ARZ056-057-069-030700-
SOUTHEAST ARKANSAS

CITY           SKY/WX    TMP DP  RH WIND       PRES   REMARKS
PINE BLUFF     PTCLDY    49  38  65 CALM      30.26R
6HR MIN TEMP:  46; 6HR MAX TEMP:  53;

STUTTGART      CLOUDY    48  37  66 NE6       30.28R
6HR MIN TEMP:  48; 6HR MAX TEMP:  55;

MONTICELLO     PTCLDY    48  39  71 NE3       30.24S
6HR MIN TEMP:  47; 6HR MAX TEMP:  55;


$$






USA.gov is the U.S. government's official web portal to all federal, state and local government web resources and services.